PBO Station Position Time Series. Reference Frame : NAM14
Format Version,1.1.1
4-character ID,P033
Station name,TenSleepTRWY2005
Begin Date, 2005-12-05
End Date, 2023-06-26
Release Date, 2023-06-27
Reference position, 43.9528991993 North Latitude, -107.3875477739 East Longitude, 1375.87277 meters elevation,
Date, North (mm), East (mm), Vertical (mm), North Std. Deviation (mm), East Std. Deviation (mm),              Vertical Std. Deviation (mm), Quality,
2005-12-05,0.00, 0.00, 0.00, 2.24, 1.61, 7.28, repro,
2005-12-06,0.85, 0.18, -1.99, 2.23, 1.60, 7.24, repro,
2005-12-07,0.19, -0.99, -4.28, 2.25, 1.62, 7.30, repro,
2005-12-08,-0.58, -1.42, -4.26, 2.30, 1.62, 7.35, repro,
2005-12-09,-0.29, -1.59, 4.58, 2.23, 1.61, 7.22, repro,
2005-12-10,-0.34, -0.35, 3.16, 2.24, 1.62, 7.31, repro,
2005-12-11,-0.52, -1.09, 6.65, 2.25, 1.62, 7.35, repro,
2005-12-12,0.41, -0.67, 6.73, 2.22, 1.60, 7.20, repro,
2005-12-13,0.40, -0.60, 5.93, 2.17, 1.58, 7.03, repro,
2005-12-14,0.59, 0.36, -2.88, 2.22, 1.60, 7.19, repro,
2005-12-15,-0.18, 0.14, -1.00, 2.28, 1.64, 7.41, repro,
2005-12-16,-0.30, -1.18, 5.27, 2.20, 1.58, 7.14, repro,
2005-12-17,0.33, -0.49, 2.72, 2.44, 1.82, 8.15, repro,
2005-12-18,0.87, -0.56, -2.49, 2.25, 1.68, 7.37, repro,
2005-12-19,0.81, -0.91, -6.98, 2.32, 1.69, 7.48, repro,
2005-12-20,-0.26, -0.90, -3.20, 2.27, 1.68, 7.40, repro,
2005-12-21,-1.77, -0.53, 3.93, 2.31, 1.73, 7.62, repro,
2005-12-22,-0.89, -1.80, 12.80, 2.32, 1.72, 7.59, repro,
2005-12-23,-0.14, -1.08, 8.82, 2.31, 1.67, 7.46, repro,
2005-12-24,0.13, -2.13, -1.63, 2.39, 1.69, 7.80, repro,
2005-12-25,-1.84, -1.36, 9.92, 2.42, 1.74, 7.86, repro,
2005-12-26,-1.30, -1.39, 15.57, 2.30, 1.63, 7.42, repro,
2005-12-27,0.27, -2.14, 11.33, 2.34, 1.70, 7.63, repro,
2005-12-28,-0.26, -1.15, 4.93, 2.35, 1.71, 7.64, repro,
2005-12-29,0.85, -1.98, 6.46, 2.69, 1.93, 8.76, repro,
2005-12-30,0.05, -2.10, 9.19, 2.55, 1.78, 8.29, repro,
2005-12-31,-0.95, -1.37, 18.43, 2.63, 1.84, 8.49, repro,
2006-01-01,-0.91, -1.15, 17.31, 2.57, 1.81, 8.35, repro,
2006-01-02,0.07, -0.75, 7.73, 2.28, 1.65, 7.41, repro,
2006-01-03,0.66, -0.93, 7.40, 2.62, 1.87, 8.66, repro,
2006-01-04,-0.14, -1.60, 0.38, 2.51, 1.79, 8.24, repro,
2006-01-05,-1.11, -1.51, -3.56, 2.36, 1.67, 7.64, repro,
2006-01-06,0.45, -1.01, 0.25, 2.61, 1.86, 8.39, repro,
2006-01-07,-0.46, -0.67, 10.23, 2.35, 1.70, 7.67, repro,
2006-01-08,-1.21, -1.70, 12.11, 2.38, 1.77, 7.82, repro,
2006-01-09,0.24, -0.88, 1.53, 2.38, 1.77, 7.83, repro,
2006-01-10,-1.87, -1.45, 3.53, 2.40, 1.73, 7.82, repro,
2006-01-11,-2.36, -2.19, 15.80, 2.38, 1.67, 7.68, repro,
2006-01-12,-0.58, -0.83, 5.13, 2.35, 1.69, 7.57, repro,
2006-01-13,0.23, -1.95, 4.58, 2.56, 1.82, 8.30, repro,
2006-01-14,0.61, -0.29, 3.41, 2.30, 1.65, 7.46, repro,
2006-01-15,0.43, -1.79, 8.83, 2.23, 1.60, 7.22, repro,
2006-01-16,-1.01, -2.06, 7.89, 2.28, 1.66, 7.46, repro,
2006-01-17,-1.48, -2.43, 7.09, 2.39, 1.70, 7.70, repro,
2006-01-18,0.35, -1.70, 12.90, 2.28, 1.65, 7.45, repro,
2006-01-19,0.37, -0.98, 8.80, 2.26, 1.64, 7.44, repro,
2006-01-20,0.06, -1.14, 1.99, 2.26, 1.65, 7.44, repro,
2006-01-21,-0.52, -1.15, 4.09, 2.27, 1.60, 7.30, repro,
2006-01-22,-0.63, -1.60, -3.75, 2.23, 1.58, 7.20, repro,
2006-01-23,-0.95, -1.86, 4.35, 2.29, 1.62, 7.36, repro,
2006-01-24,-0.05, -1.83, 0.54, 2.28, 1.64, 7.49, repro,
2006-01-25,0.35, -1.14, -3.04, 2.19, 1.61, 7.20, repro,
2006-01-26,-0.51, -1.68, 2.90, 2.15, 1.57, 7.06, repro,
2006-01-27,-0.46, -1.22, 0.48, 2.17, 1.57, 7.12, repro,
2006-01-28,-0.36, -1.37, 1.22, 2.16, 1.56, 7.02, repro,
2006-01-29,-0.66, -2.03, 8.83, 2.16, 1.55, 7.00, repro,
2006-01-30,-0.44, -1.17, 2.64, 2.17, 1.56, 7.09, repro,
2006-01-31,-1.51, -2.10, 11.61, 2.15, 1.55, 7.03, repro,
2006-02-01,-0.25, -1.74, 10.69, 2.17, 1.56, 7.07, repro,
2006-02-02,-0.31, -2.06, 8.98, 2.17, 1.57, 7.16, repro,
2006-02-03,-0.35, -2.30, 6.09, 2.14, 1.54, 6.97, repro,
2006-02-04,0.30, -1.46, 3.69, 2.15, 1.54, 7.06, repro,
2006-02-05,0.86, -1.46, 4.73, 2.16, 1.56, 7.11, repro,
2006-02-06,0.08, -1.55, -3.05, 2.23, 1.60, 7.27, repro,
2006-02-07,0.02, -1.98, -5.41, 2.26, 1.61, 7.40, repro,
2006-02-08,-0.37, -1.65, -8.24, 2.17, 1.58, 7.22, repro,
2006-02-09,-0.10, -1.93, -4.37, 2.19, 1.58, 7.11, repro,
2006-02-10,2.02, -1.51, -5.29, 2.31, 1.62, 7.42, repro,
2006-02-11,0.81, -1.28, -9.49, 2.20, 1.63, 7.44, repro,
2006-02-12,1.11, -1.57, -8.04, 2.17, 1.59, 7.24, repro,
2006-02-13,0.23, -1.76, -3.39, 2.17, 1.58, 7.22, repro,
2006-02-14,0.32, -2.29, 1.60, 2.20, 1.60, 7.27, repro,
2006-02-15,0.88, -1.79, 2.71, 2.16, 1.57, 7.09, repro,
2006-02-16,2.31, -1.54, -2.54, 2.16, 1.58, 7.16, repro,
2006-02-17,1.84, -1.20, -7.07, 2.13, 1.57, 7.08, repro,
2006-02-18,1.67, -0.50, -9.88, 2.18, 1.61, 7.25, repro,
2006-02-19,-0.01, -1.15, -5.23, 2.20, 1.63, 7.29, repro,
2006-02-20,0.38, -1.93, 2.57, 2.19, 1.62, 7.26, repro,
2006-02-21,-0.60, -3.19, 8.77, 2.20, 1.63, 7.32, repro,
2006-02-22,0.45, -1.76, 4.97, 2.18, 1.62, 7.28, repro,
2006-02-23,0.23, -1.07, 1.71, 2.15, 1.61, 7.19, repro,
2006-02-24,1.57, -0.19, -7.30, 2.15, 1.58, 7.11, repro,
2006-02-25,0.21, -1.47, -7.44, 2.20, 1.62, 7.29, repro,
2006-02-26,0.15, -1.41, -6.16, 2.19, 1.61, 7.27, repro,
2006-02-27,1.28, -1.39, 2.19, 2.13, 1.58, 7.06, repro,
2006-02-28,-0.81, -0.99, 7.09, 2.18, 1.63, 7.28, repro,
2006-03-01,1.58, -2.68, 3.61, 2.19, 1.67, 7.33, repro,
2006-03-02,0.44, -1.92, -2.23, 2.15, 1.59, 7.10, repro,
2006-03-03,0.04, -2.15, -0.96, 2.21, 1.62, 7.25, repro,
2006-03-04,1.46, -1.12, -1.65, 2.13, 1.58, 7.06, repro,
2006-03-05,0.47, -1.74, -1.80, 2.13, 1.60, 7.10, repro,
2006-03-06,-0.10, -2.22, -0.56, 2.13, 1.61, 7.16, repro,
2006-03-07,0.60, -1.25, 8.18, 2.17, 1.62, 7.26, repro,
2006-03-08,0.29, -1.67, 9.05, 2.16, 1.63, 7.27, repro,
2006-03-09,-0.76, -2.69, 18.84, 2.11, 1.58, 7.01, repro,
2006-03-10,0.87, -2.43, 12.38, 2.11, 1.59, 7.10, repro,
2006-03-11,1.55, -1.78, 3.11, 2.16, 1.63, 7.32, repro,
2006-03-12,1.22, -2.22, -2.94, 2.16, 1.63, 7.36, repro,
2006-03-13,1.05, -1.78, 0.42, 2.21, 1.63, 7.32, repro,
2006-03-14,0.25, -2.37, 1.17, 2.17, 1.63, 7.30, repro,
2006-03-15,-0.57, -2.73, 2.65, 2.16, 1.62, 7.22, repro,
2006-03-16,0.67, -1.39, -6.77, 2.24, 1.66, 7.50, repro,
2006-03-17,1.30, -1.39, -5.72, 2.26, 1.66, 7.58, repro,
2006-03-18,1.74, -0.50, 0.17, 2.16, 1.63, 7.29, repro,
2006-03-19,1.96, -1.10, -7.26, 2.15, 1.62, 7.21, repro,
2006-03-20,1.71, -0.39, -6.50, 2.15, 1.62, 7.19, repro,
2006-03-21,1.18, -1.55, -0.25, 2.16, 1.63, 7.25, repro,
2006-03-22,0.74, -1.17, -6.78, 2.18, 1.64, 7.32, repro,
2006-03-23,0.20, -1.90, -8.97, 2.25, 1.65, 7.46, repro,
2006-03-24,-0.11, -0.93, -1.51, 2.31, 1.72, 7.66, repro,
2006-03-25,0.55, -0.92, 0.51, 2.27, 1.66, 7.51, repro,
2006-03-26,-3.03, -2.16, 3.02, 2.24, 1.65, 7.37, repro,
2006-03-27,-0.20, -2.35, -2.64, 2.25, 1.68, 7.55, repro,
2006-03-28,0.41, -1.03, -1.45, 2.18, 1.61, 7.30, repro,
2006-03-29,0.13, -1.57, 8.53, 2.11, 1.58, 7.03, repro,
2006-03-30,0.67, -2.47, 6.42, 2.11, 1.59, 7.07, repro,
2006-03-31,0.66, -2.01, 0.49, 2.10, 1.59, 7.09, repro,
2006-04-01,0.45, -2.45, 7.93, 2.10, 1.59, 7.05, repro,
2006-04-02,-0.64, -1.22, -1.24, 2.12, 1.59, 7.12, repro,
2006-04-03,0.11, -2.36, -0.82, 2.11, 1.60, 7.13, repro,
2006-04-04,0.54, -1.53, 3.03, 2.17, 1.61, 7.25, repro,
2006-04-05,-1.67, -2.46, 4.86, 2.17, 1.62, 7.32, repro,
2006-04-06,0.62, -3.89, 7.30, 2.12, 1.62, 7.26, repro,
2006-04-07,0.28, -2.03, 0.31, 2.17, 1.65, 7.32, repro,
2006-04-08,-0.14, -1.59, 1.25, 2.21, 1.64, 7.34, repro,
2006-04-09,1.23, -1.88, 3.21, 2.09, 1.57, 7.02, repro,
2006-04-10,0.95, -1.21, 9.49, 2.12, 1.58, 7.06, repro,
2006-04-11,-0.45, -1.84, 7.51, 2.21, 1.62, 7.48, repro,
2006-04-12,0.31, -1.74, -0.49, 2.17, 1.60, 7.33, repro,
2006-04-13,-1.63, -1.66, -1.19, 2.15, 1.61, 7.19, repro,
2006-04-14,0.10, -2.55, 4.44, 2.08, 1.58, 7.04, repro,
2006-04-15,-0.23, -2.78, 16.15, 2.18, 1.61, 7.32, repro,
2006-04-16,0.62, -1.57, 6.69, 2.11, 1.57, 7.08, repro,
2006-04-17,-0.29, -2.35, 4.35, 2.11, 1.57, 7.08, repro,
2006-04-18,-0.75, -2.15, 4.39, 2.12, 1.61, 7.30, repro,
2006-04-19,-0.79, -2.76, 1.99, 2.10, 1.58, 7.11, repro,
2006-04-20,0.51, -2.28, 5.97, 2.14, 1.60, 7.14, repro,
2006-04-21,0.29, -2.15, 2.16, 2.12, 1.57, 7.03, repro,
2006-04-22,-0.00, -2.08, -0.70, 2.11, 1.57, 7.02, repro,
2006-04-23,-0.68, -2.54, 5.76, 2.20, 1.65, 7.38, repro,
2006-04-24,-0.27, -1.83, 0.01, 2.12, 1.61, 7.13, repro,
2006-04-25,1.53, -0.16, -4.06, 2.12, 1.61, 7.12, repro,
2006-04-26,0.13, -1.83, 2.34, 2.15, 1.61, 7.10, repro,
2006-04-27,-0.20, -2.23, -1.92, 2.20, 1.63, 7.25, repro,
2006-04-28,0.40, -1.78, -0.78, 2.18, 1.61, 7.25, repro,
2006-04-29,0.78, -1.37, -2.29, 2.15, 1.60, 7.15, repro,
2006-04-30,0.74, -2.24, 4.77, 2.16, 1.61, 7.25, repro,
2006-05-01,-0.24, -0.96, 8.74, 2.11, 1.57, 7.04, repro,
2006-05-02,1.01, -2.79, 6.62, 2.22, 1.63, 7.28, repro,
2006-05-03,0.41, -1.94, 0.62, 2.11, 1.57, 7.02, repro,
2006-05-04,-0.40, -2.20, 0.36, 2.16, 1.59, 7.15, repro,
2006-05-05,0.93, -0.42, 2.04, 2.09, 1.56, 6.98, repro,
2006-05-06,-0.32, -1.57, 5.48, 2.12, 1.59, 7.11, repro,
2006-05-07,-0.39, -1.83, 6.49, 2.11, 1.57, 7.01, repro,
2006-05-08,-0.70, -2.49, 10.09, 2.17, 1.60, 7.21, repro,
2006-05-09,-2.08, -2.52, 6.31, 2.20, 1.58, 7.21, repro,
2006-05-10,-0.31, -1.82, -1.38, 2.11, 1.56, 7.01, repro,
2006-05-11,0.90, -1.64, 6.13, 2.16, 1.59, 7.14, repro,
2006-05-12,0.01, -1.75, 4.92, 2.10, 1.57, 7.01, repro,
2006-05-13,1.07, -2.25, 4.09, 2.12, 1.56, 7.03, repro,
2006-05-14,0.01, -2.32, -0.69, 2.17, 1.60, 7.18, repro,
2006-05-15,0.10, -1.16, -1.71, 2.11, 1.56, 7.02, repro,
2006-05-16,-0.05, -0.90, -0.34, 2.17, 1.61, 7.30, repro,
2006-05-17,0.66, -0.86, 1.58, 2.16, 1.61, 7.30, repro,
2006-05-18,0.61, -3.47, 10.14, 2.12, 1.57, 7.07, repro,
2006-05-19,1.77, -2.81, 4.82, 2.21, 1.57, 7.24, repro,
2006-05-20,0.82, -1.92, 3.78, 2.20, 1.59, 7.27, repro,
2006-05-21,0.83, -3.16, 6.34, 2.21, 1.59, 7.30, repro,
2006-05-22,0.41, -2.08, 5.94, 2.20, 1.63, 7.40, repro,
2006-05-23,-0.00, -2.07, 5.48, 2.19, 1.57, 7.22, repro,
2006-05-24,0.72, -1.60, 3.28, 2.19, 1.56, 7.16, repro,
2006-05-25,-0.41, -2.30, 5.69, 2.34, 1.62, 7.70, repro,
2006-05-26,0.21, -1.33, 9.56, 2.27, 1.60, 7.50, repro,
2006-05-27,-0.29, -2.36, 15.66, 2.19, 1.61, 7.27, repro,
2006-05-28,0.70, -1.04, 11.99, 2.19, 1.60, 7.31, repro,
2006-05-29,-0.06, -3.69, 4.18, 2.21, 1.59, 7.22, repro,
2006-05-30,0.10, -3.10, 3.41, 2.24, 1.61, 7.38, repro,
2006-05-31,-0.43, -1.71, 0.38, 2.26, 1.61, 7.43, repro,
2006-06-01,0.65, -2.15, -1.18, 2.26, 1.63, 7.44, repro,
2006-06-02,-0.37, -2.48, 6.47, 2.38, 1.69, 7.74, repro,
2006-06-03,-0.65, -2.95, 5.06, 2.24, 1.62, 7.34, repro,
2006-06-04,-1.20, -1.98, 8.77, 2.32, 1.64, 7.48, repro,
2006-06-05,-0.91, -1.75, 1.78, 2.24, 1.61, 7.36, repro,
2006-06-06,-0.85, -1.29, 9.69, 2.31, 1.66, 7.59, repro,
2006-06-07,0.59, -2.20, 2.93, 2.25, 1.63, 7.45, repro,
2006-06-08,1.24, -1.31, 3.57, 2.30, 1.68, 7.70, repro,
2006-06-09,-2.22, -2.56, 11.47, 2.29, 1.62, 7.40, repro,
2006-06-10,0.19, -1.68, 15.15, 2.19, 1.57, 7.17, repro,
2006-06-11,-0.72, -2.42, 8.79, 2.26, 1.62, 7.34, repro,
2006-06-12,-1.21, -2.84, 9.76, 2.32, 1.67, 7.57, repro,
2006-06-13,-0.54, -1.26, 4.49, 2.33, 1.68, 7.62, repro,
2006-06-14,0.80, -2.82, 6.05, 2.25, 1.65, 7.57, repro,
2006-06-15,-0.87, -1.51, 13.59, 2.24, 1.61, 7.31, repro,
2006-06-16,0.55, -3.19, 11.54, 2.17, 1.58, 7.12, repro,
2006-06-17,-1.31, -3.52, 9.86, 2.18, 1.58, 7.17, repro,
2006-06-18,-1.84, -1.70, 7.58, 2.26, 1.65, 7.57, repro,
2006-06-19,-0.51, -1.61, 3.43, 2.24, 1.63, 7.43, repro,
2006-06-20,-3.20, -1.86, 8.61, 2.31, 1.67, 7.69, repro,
2006-06-21,-2.01, -3.10, 10.31, 2.22, 1.61, 7.31, repro,
2006-06-22,-0.59, -1.33, 4.59, 2.22, 1.62, 7.33, repro,
2006-06-23,-0.75, -1.58, 5.11, 2.25, 1.63, 7.44, repro,
2006-06-24,-1.14, -1.43, 3.39, 2.24, 1.63, 7.40, repro,
2006-06-25,-2.66, -1.04, 0.77, 2.25, 1.63, 7.45, repro,
2006-06-26,-0.71, -1.79, 1.64, 2.23, 1.62, 7.39, repro,
2006-06-27,0.53, -0.78, 1.98, 2.27, 1.68, 7.53, repro,
2006-06-28,0.16, -2.36, 6.86, 2.23, 1.62, 7.36, repro,
2006-06-29,-0.20, -1.88, 8.34, 2.15, 1.62, 7.26, repro,
2006-06-30,-0.61, -1.67, 12.75, 2.20, 1.60, 7.38, repro,
2006-07-01,0.36, -2.67, 13.34, 2.24, 1.64, 7.53, repro,
2006-07-02,-2.28, -0.97, -1.29, 2.19, 1.60, 7.33, repro,
2006-07-03,-0.57, -1.01, -6.29, 2.19, 1.58, 7.26, repro,
2006-07-04,-0.44, -0.38, 5.46, 2.19, 1.60, 7.32, repro,
2006-07-05,-1.19, -1.70, 2.96, 2.20, 1.60, 7.32, repro,
2006-07-06,0.06, 0.61, -3.89, 2.18, 1.58, 7.26, repro,
2006-07-07,-2.08, -2.77, 1.24, 2.19, 1.58, 7.25, repro,
2006-07-08,-0.25, -1.92, 1.88, 2.19, 1.58, 7.23, repro,
2006-07-09,-0.20, -0.10, 2.40, 2.19, 1.59, 7.29, repro,
2006-07-10,0.99, -1.11, -2.18, 2.19, 1.60, 7.29, repro,
2006-07-11,-0.69, -1.99, 7.79, 2.22, 1.60, 7.37, repro,
2006-07-12,-1.44, -3.32, 10.99, 2.20, 1.58, 7.28, repro,
2006-07-13,0.38, -3.60, 7.38, 2.20, 1.59, 7.31, repro,
2006-07-14,-2.14, -2.17, 5.31, 2.20, 1.58, 7.27, repro,
2006-07-15,-1.96, -1.15, 5.02, 2.24, 1.62, 7.46, repro,
2006-07-16,-0.41, -2.33, 6.69, 2.20, 1.60, 7.38, repro,
2006-07-17,-0.33, -2.91, 13.93, 2.25, 1.64, 7.58, repro,
2006-07-18,-2.94, -2.52, 11.15, 2.14, 1.57, 7.07, repro,
2006-07-19,-2.43, -0.68, 4.96, 2.12, 1.57, 7.02, repro,
2006-07-20,-1.02, -1.46, 5.05, 2.16, 1.63, 7.32, repro,
2006-07-21,-1.15, -0.45, -4.17, 2.13, 1.58, 7.10, repro,
2006-07-22,-0.01, -2.23, 2.17, 2.14, 1.58, 7.09, repro,
2006-07-23,-0.85, -3.30, 12.90, 2.14, 1.57, 7.07, repro,
2006-07-24,-0.08, -2.40, 8.60, 2.12, 1.56, 6.94, repro,
2006-07-25,-1.22, -0.71, 11.29, 2.18, 1.59, 7.21, repro,
2006-07-26,-1.41, -2.21, 8.80, 2.20, 1.63, 7.21, repro,
2006-07-27,-0.78, -2.16, 8.43, 2.14, 1.58, 7.08, repro,
2006-07-28,-0.78, -2.31, 6.64, 2.18, 1.62, 7.15, repro,
2006-07-29,-0.96, -1.77, 12.90, 2.17, 1.60, 7.07, repro,
2006-07-30,-1.30, -3.66, 18.11, 2.18, 1.62, 7.16, repro,
2006-07-31,-0.54, -2.30, 16.53, 2.11, 1.56, 6.97, repro,
2006-08-01,0.06, -2.57, 14.05, 2.14, 1.58, 7.09, repro,
2006-08-02,-0.65, -1.46, 15.28, 2.16, 1.60, 7.18, repro,
2006-08-03,1.43, -1.43, 7.86, 2.22, 1.65, 7.34, repro,
2006-08-04,-1.56, -1.02, 13.58, 2.24, 1.62, 7.40, repro,
2006-08-05,0.08, -1.92, 9.09, 2.21, 1.66, 7.35, repro,
2006-08-06,-0.37, -1.72, 6.27, 2.18, 1.63, 7.34, repro,
2006-08-07,-2.50, -0.42, 4.84, 2.19, 1.61, 7.27, repro,
2006-08-08,0.73, -1.71, 3.12, 2.12, 1.57, 7.00, repro,
2006-08-09,1.20, -2.11, 9.39, 2.12, 1.55, 6.94, repro,
2006-08-10,0.44, -1.24, 6.12, 2.12, 1.56, 6.99, repro,
2006-08-11,-0.15, -1.78, 15.37, 2.14, 1.58, 7.05, repro,
2006-08-12,0.40, -1.87, 7.09, 2.16, 1.57, 7.10, repro,
2006-08-13,1.47, -3.39, 11.62, 2.20, 1.64, 7.23, repro,
2006-08-14,0.58, -2.44, 5.31, 2.16, 1.61, 7.09, repro,
2006-08-15,1.60, -1.01, 15.52, 2.19, 1.59, 7.12, repro,
2006-08-16,0.77, -2.26, 7.02, 2.16, 1.61, 7.24, repro,
2006-08-17,-0.45, -2.83, 9.74, 2.24, 1.66, 7.42, repro,
2006-08-18,-0.25, -1.70, 6.63, 2.23, 1.70, 7.43, repro,
2006-08-19,-0.19, -1.38, 7.70, 2.12, 1.57, 7.01, repro,
2006-08-20,-0.44, -1.77, 14.27, 2.12, 1.57, 7.06, repro,
2006-08-21,1.57, -1.35, 10.31, 2.14, 1.57, 7.06, repro,
2006-08-22,-1.81, -1.84, 10.19, 2.18, 1.59, 7.19, repro,
2006-08-23,-1.00, -2.41, 12.21, 2.18, 1.59, 7.17, repro,
2006-08-24,-1.42, -3.69, 16.70, 2.16, 1.61, 7.20, repro,
2006-08-25,-0.07, -2.37, 17.01, 2.19, 1.62, 7.28, repro,
2006-08-26,-1.90, -1.84, 10.00, 2.21, 1.64, 7.32, repro,
2006-08-27,-1.04, -1.34, 6.45, 2.23, 1.67, 7.45, repro,
2006-08-28,-1.67, -1.78, 6.32, 2.25, 1.67, 7.49, repro,
2006-08-29,-0.64, -0.88, 8.20, 2.25, 1.68, 7.51, repro,
2006-08-30,-1.40, -1.49, 10.86, 2.20, 1.66, 7.40, repro,
2006-08-31,-0.87, -3.17, 13.10, 2.23, 1.66, 7.41, repro,
2006-09-01,-1.50, -1.55, 8.43, 2.23, 1.66, 7.42, repro,
2006-09-02,0.15, -0.61, 1.36, 2.25, 1.68, 7.50, repro,
2006-09-03,-0.21, -1.57, 4.92, 2.25, 1.68, 7.54, repro,
2006-09-04,-0.25, -1.92, 4.46, 2.25, 1.71, 7.58, repro,
2006-09-05,-0.99, -1.94, 6.15, 2.30, 1.72, 7.68, repro,
2006-09-06,0.47, -1.97, 8.00, 2.24, 1.67, 7.47, repro,
2006-09-07,0.01, -1.26, 9.73, 2.26, 1.73, 7.63, repro,
2006-09-08,-2.59, -2.83, 15.12, 2.27, 1.72, 7.65, repro,
2006-09-09,-0.67, -1.86, 7.63, 2.18, 1.63, 7.24, repro,
2006-09-10,-1.67, -1.74, 14.39, 2.21, 1.63, 7.34, repro,
2006-09-11,-0.15, -1.44, 8.86, 2.21, 1.63, 7.26, repro,
2006-09-12,0.05, -1.29, 8.55, 2.19, 1.63, 7.28, repro,
2006-09-13,-0.93, -2.13, 15.39, 2.21, 1.63, 7.31, repro,
2006-09-14,0.09, -1.72, 17.79, 2.34, 1.70, 7.67, repro,
2006-09-15,0.27, -1.88, 17.51, 2.25, 1.61, 7.34, repro,
2006-09-16,-0.30, -1.72, 15.68, 2.17, 1.58, 7.17, repro,
2006-09-17,-0.22, -2.23, 12.72, 2.16, 1.58, 7.16, repro,
2006-09-18,-0.36, -2.54, 11.66, 2.17, 1.58, 7.17, repro,
2006-09-19,0.61, -0.98, 7.89, 2.17, 1.58, 7.11, repro,
2006-09-20,-0.23, -2.30, 14.91, 2.16, 1.59, 7.14, repro,
2006-09-21,0.08, -1.75, 17.04, 2.25, 1.66, 7.43, repro,
2006-09-22,-0.34, -2.21, 13.44, 2.25, 1.64, 7.38, repro,
2006-09-23,-0.21, -2.02, 8.80, 2.19, 1.60, 7.26, repro,
2006-09-24,0.29, -1.87, 5.97, 2.23, 1.61, 7.32, repro,
2006-09-25,-0.57, -2.21, 12.72, 2.28, 1.65, 7.56, repro,
2006-09-26,-0.36, -1.39, 4.04, 2.30, 1.71, 7.56, repro,
2006-09-27,0.21, -2.23, 5.66, 2.17, 1.58, 7.18, repro,
2006-09-28,-0.08, -1.59, 3.53, 2.22, 1.63, 7.37, repro,
2006-09-29,-0.33, -2.25, 11.58, 2.27, 1.71, 7.52, repro,
2006-09-30,-1.06, -2.17, 15.09, 2.20, 1.64, 7.32, repro,
2006-10-01,-1.17, -1.66, 14.42, 2.20, 1.59, 7.26, repro,
2006-10-02,0.04, -1.28, 4.79, 2.24, 1.66, 7.43, repro,
2006-10-03,-0.18, -3.18, 0.18, 2.26, 1.66, 7.44, repro,
2006-10-04,0.70, -1.73, -1.98, 2.24, 1.66, 7.44, repro,
2006-10-05,-0.87, -1.50, 2.52, 2.18, 1.60, 7.21, repro,
2006-10-06,0.82, -2.00, 4.31, 2.19, 1.62, 7.29, repro,
2006-10-07,1.63, -1.68, 8.19, 2.25, 1.69, 7.55, repro,
2006-10-08,1.12, -1.87, 5.56, 2.22, 1.64, 7.37, repro,
2006-10-09,1.08, -2.18, 3.85, 2.27, 1.73, 7.58, repro,
2006-10-10,-0.33, -1.52, 6.10, 2.20, 1.64, 7.37, repro,
2006-10-11,0.19, -1.86, 9.43, 2.22, 1.68, 7.46, repro,
2006-10-12,1.11, -1.88, 12.42, 2.17, 1.59, 7.16, repro,
2006-10-13,0.63, -2.16, 7.50, 2.12, 1.58, 7.09, repro,
2006-10-14,0.70, -2.06, 9.44, 2.18, 1.64, 7.28, repro,
2006-10-15,0.48, -1.45, 15.16, 2.17, 1.65, 7.25, repro,
2006-10-16,-0.23, -2.80, 23.40, 2.16, 1.63, 7.28, repro,
2006-10-17,1.36, -2.41, 15.48, 2.15, 1.62, 7.22, repro,
2006-10-18,0.51, -2.24, 8.65, 2.12, 1.60, 7.10, repro,
2006-10-19,0.14, -2.58, 13.51, 2.26, 1.71, 7.51, repro,
2006-10-20,1.57, -2.05, 10.62, 2.47, 1.88, 8.27, repro,
2006-10-21,0.43, -2.06, 0.65, 2.27, 1.72, 7.60, repro,
2006-10-22,0.09, -1.72, 2.13, 2.18, 1.68, 7.38, repro,
2006-10-23,0.10, -2.24, 6.19, 2.36, 1.84, 8.35, repro,
2006-10-24,0.71, -0.88, 6.86, 2.26, 1.78, 7.81, repro,
2006-10-25,0.54, -1.37, 10.95, 2.25, 1.73, 7.51, repro,
2006-10-26,1.30, -0.34, 5.97, 2.25, 1.73, 7.49, repro,
2006-10-27,-0.29, -1.95, 2.76, 2.17, 1.65, 7.34, repro,
2006-10-28,1.20, -2.68, 4.71, 2.23, 1.69, 7.53, repro,
2006-10-29,-0.09, -2.39, 9.59, 2.19, 1.69, 7.46, repro,
2006-10-30,0.90, -2.33, 11.08, 2.09, 1.59, 7.02, repro,
2006-10-31,1.03, -1.39, 5.04, 2.17, 1.68, 7.35, repro,
2006-11-01,1.14, -0.93, 0.18, 2.33, 1.81, 7.80, repro,
2006-11-02,-0.71, 0.68, 3.07, 2.14, 1.63, 7.27, repro,
2006-11-03,-0.39, -1.45, 5.58, 2.25, 1.75, 7.62, repro,
2006-11-04,-0.53, -2.25, 4.93, 2.27, 1.76, 7.66, repro,
2006-11-05,-0.48, -1.59, 9.97, 2.20, 1.66, 7.32, repro,
2006-11-06,-0.26, -0.60, 5.31, 2.09, 1.59, 7.10, repro,
2006-11-07,-0.49, -0.76, 8.92, 2.27, 1.72, 7.48, repro,
2006-11-08,-0.47, -1.29, 11.19, 2.22, 1.66, 7.30, repro,
2006-11-09,-0.08, -2.06, 14.67, 2.29, 1.73, 7.53, repro,
2006-11-10,-1.42, -2.02, 5.92, 2.15, 1.60, 7.11, repro,
2006-11-11,0.37, -1.08, 9.33, 2.26, 1.67, 7.37, repro,
2006-11-12,0.91, -1.08, 2.47, 2.25, 1.69, 7.45, repro,
2006-11-13,-0.73, -1.76, 14.52, 2.22, 1.67, 7.44, repro,
2006-11-14,0.86, -1.96, 13.09, 2.12, 1.58, 7.16, repro,
2006-11-15,-0.29, -1.79, 3.55, 2.09, 1.58, 7.11, repro,
2006-11-16,-0.19, -2.03, 16.78, 2.10, 1.59, 7.12, repro,
2006-11-17,1.04, -1.21, 6.18, 2.15, 1.59, 7.18, repro,
2006-11-18,0.67, -1.02, 2.76, 2.15, 1.60, 7.21, repro,
2006-11-19,-0.06, -1.70, 1.13, 2.11, 1.58, 7.17, repro,
2006-11-20,-1.62, -1.83, 7.12, 2.16, 1.61, 7.24, repro,
2006-11-21,-0.91, -0.62, 5.33, 2.12, 1.59, 7.20, repro,
2006-11-22,0.28, -0.03, 5.36, 2.08, 1.58, 7.10, repro,
2006-11-23,1.69, -2.11, 5.09, 2.13, 1.63, 7.29, repro,
2006-11-24,0.63, -1.12, 1.31, 2.15, 1.63, 7.34, repro,
2006-11-25,-0.05, -1.95, 8.71, 2.11, 1.59, 7.13, repro,
2006-11-26,0.15, -1.53, 7.11, 2.15, 1.60, 7.19, repro,
2006-11-27,1.08, -0.80, 10.22, 2.15, 1.60, 7.19, repro,
2006-11-28,-0.02, -1.79, 9.93, 2.16, 1.60, 7.18, repro,
2006-11-29,0.66, -1.95, 5.63, 2.17, 1.61, 7.21, repro,
2006-11-30,0.33, -1.81, 2.10, 2.09, 1.59, 7.09, repro,
2006-12-01,-0.07, -1.38, 3.48, 2.13, 1.60, 7.17, repro,
2006-12-02,0.75, -1.78, -0.17, 2.11, 1.59, 7.12, repro,
2006-12-03,-0.63, -1.18, -2.20, 2.12, 1.60, 7.13, repro,
2006-12-04,-0.35, -2.44, -3.04, 2.15, 1.59, 7.20, repro,
2006-12-05,0.72, -1.59, 2.79, 2.15, 1.65, 7.36, repro,
2006-12-06,0.65, -2.37, 2.68, 2.22, 1.71, 7.67, repro,
2006-12-07,-0.41, -1.17, -3.51, 2.18, 1.64, 7.36, repro,
2006-12-08,-1.48, -2.00, 4.61, 2.17, 1.64, 7.35, repro,
2006-12-09,-0.73, -2.39, 9.03, 2.21, 1.65, 7.43, repro,
2006-12-10,0.43, -1.94, 7.83, 2.20, 1.65, 7.43, repro,
2006-12-11,0.66, -2.01, 5.72, 2.13, 1.60, 7.18, repro,
2006-12-12,-0.40, -1.24, 9.20, 2.21, 1.65, 7.50, repro,
2006-12-13,-2.18, -2.15, 12.91, 2.17, 1.65, 7.46, repro,
2006-12-14,-0.09, -1.89, 8.92, 2.16, 1.64, 7.37, repro,
2006-12-15,-0.18, -1.20, 5.93, 2.35, 1.83, 8.09, repro,
2006-12-16,-0.25, -3.46, 14.76, 2.31, 1.72, 7.77, repro,
2006-12-17,1.46, -0.46, 2.74, 2.29, 1.72, 7.88, repro,
2006-12-18,-0.85, -1.77, 3.92, 2.53, 1.88, 8.65, repro,
2006-12-19,-0.41, -2.17, 5.50, 2.32, 1.73, 7.94, repro,
2006-12-20,0.07, -1.89, 3.01, 2.31, 1.68, 7.65, repro,
2006-12-21,0.36, -1.54, 5.96, 2.16, 1.66, 7.40, repro,
2006-12-22,0.08, -2.47, 4.76, 2.33, 1.77, 8.02, repro,
2006-12-23,-0.66, -1.61, -3.45, 2.23, 1.67, 7.64, repro,
2006-12-24,-0.28, -1.85, 2.44, 2.14, 1.61, 7.27, repro,
2006-12-25,-0.78, -1.68, -4.31, 2.27, 1.72, 7.76, repro,
2006-12-26,0.21, -1.32, 1.91, 2.26, 1.64, 7.47, repro,
2006-12-27,0.42, -1.59, 9.94, 2.22, 1.67, 7.61, repro,
2006-12-28,0.65, -2.46, 6.71, 2.58, 1.97, 9.27, repro,
2006-12-29,-0.03, -0.91, -1.70, 2.38, 1.84, 8.42, repro,
2006-12-30,-0.78, -1.95, 1.80, 2.41, 1.79, 8.30, repro,
2006-12-31,-1.34, -1.85, 2.44, 2.40, 1.78, 8.32, repro,
2007-01-01,-0.81, -1.20, 1.31, 2.53, 1.90, 8.89, repro,
2007-01-02,-1.07, -1.34, 3.49, 2.52, 1.90, 8.60, repro,
2007-01-03,-1.07, -1.75, 15.78, 2.24, 1.72, 7.68, repro,
2007-01-04,-0.34, -2.00, 15.75, 2.30, 1.78, 7.94, repro,
2007-01-05,0.41, -1.61, 7.80, 2.17, 1.68, 7.51, repro,
2007-01-06,-0.92, -1.23, 3.35, 2.19, 1.69, 7.58, repro,
2007-01-07,0.79, -1.54, -5.67, 2.16, 1.64, 7.30, repro,
2007-01-08,0.61, -2.47, -1.97, 2.18, 1.66, 7.34, repro,
2007-01-09,-1.05, -2.06, -0.79, 2.13, 1.60, 7.10, repro,
2007-01-10,-0.69, -1.81, 7.67, 2.26, 1.71, 7.58, repro,
2007-01-11,1.27, -1.07, -0.02, 2.19, 1.66, 7.38, repro,
2007-01-12,1.15, -1.35, -9.74, 2.14, 1.60, 7.18, repro,
2007-01-13,0.77, -1.31, -8.15, 2.07, 1.57, 6.91, repro,
2007-01-14,-0.01, -2.27, -8.17, 2.08, 1.57, 6.93, repro,
2007-01-15,-1.68, -1.88, -7.63, 2.08, 1.57, 6.97, repro,
2007-01-16,-1.07, -1.57, -5.77, 2.14, 1.59, 7.12, repro,
2007-01-17,-0.95, -1.86, -4.13, 2.15, 1.61, 7.15, repro,
2007-01-18,0.56, -0.74, -11.47, 2.21, 1.64, 7.29, repro,
2007-01-19,0.96, -1.19, -6.69, 2.12, 1.60, 7.09, repro,
2007-01-20,-0.09, -1.55, 0.56, 2.13, 1.60, 7.13, repro,
2007-01-21,-0.41, -1.87, 0.86, 2.09, 1.57, 6.96, repro,
2007-01-22,-0.56, -2.24, -0.46, 2.15, 1.62, 7.23, repro,
2007-01-23,-0.36, -1.95, -3.98, 2.11, 1.57, 7.06, repro,
2007-01-24,-0.06, -1.37, -7.66, 2.10, 1.57, 6.94, repro,
2007-01-25,-0.11, -1.55, -8.89, 2.15, 1.60, 7.12, repro,
2007-01-26,-0.34, -2.41, -4.02, 2.15, 1.59, 7.06, repro,
2007-01-27,-0.31, -1.51, -1.55, 2.15, 1.59, 7.16, repro,
2007-01-28,0.37, -1.62, -4.08, 2.10, 1.58, 7.01, repro,